| time (UTC) | temp F | wind direction | speed knots | gust knots | rain 1hr in | rain 24hr in | rain mn in | humidity % | barometer mb |
| 20260505152307 | 35 | 270 | 0.0 | 0.0 | 0.07 | 0.12 | 0.12 | 92 | 1015.2 |
| 20260505151801 | 35 | 355 | 0.0 | 0.0 | 0.07 | 0.12 | 0.12 | 92 | 1015.4 |
| 20260505151259 | 35 | 320 | 0.0 | 0.0 | 0.00 | 0.11 | 0.11 | 92 | 1015.4 |
| 20260505150755 | 35 | 359 | 0.0 | 0.0 | 0.00 | 0.11 | 0.11 | 92 | 1015.4 |
| 20260505150253 | 35 | 3 | 0.9 | 0.9 | 0.05 | 0.11 | 0.11 | 92 | 1015.4 |
| 20260505140218 | 35 | 22 | 2.6 | 2.6 | 0.00 | 0.06 | 0.06 | 92 | 1015.3 |
| 20260505130142 | 34 | 335 | 0.0 | 0.0 | 0.12 | 0.01 | 0.01 | 92 | 1014.7 |
| 20260505124631 | 34 | 6 | 0.9 | 0.9 | 0.07 | 0.36 | 0.36 | 92 | 1014.3 |
| 20260505124127 | 34 | 350 | 0.0 | 0.0 | 0.00 | 0.35 | 0.35 | 92 | 1014.4 |
| 20260505123623 | 33 | 16 | 0.9 | 1.7 | 0.00 | 0.35 | 0.35 | 92 | 1014.4 |
| 20260505123120 | 34 | 352 | 0.9 | 1.7 | 0.00 | 0.35 | 0.35 | 92 | 1014.4 |
| 20260505122617 | 34 | 318 | 0.9 | 0.9 | 0.00 | 0.35 | 0.35 | 92 | 1014.7 |
| 20260505122115 | 34 | 316 | 0.0 | 0.9 | 0.05 | 0.35 | 0.35 | 92 | 1014.3 |
| 20260505121611 | 35 | 1 | 0.0 | 0.0 | 0.05 | 0.35 | 0.35 | 92 | 1014.1 |
| 20260505121108 | 34 | 9 | 1.7 | 1.7 | 0.00 | 0.34 | 0.34 | 92 | 1014.3 |
| 20260505120604 | 35 | 349 | 2.6 | 4.3 | 0.00 | 0.34 | 0.34 | 92 | 1014.4 |
| 20260505120100 | 35 | 353 | 1.7 | 1.7 | 0.07 | 0.34 | 0.34 | 92 | 1014.4 |
| 20260505115600 | 35 | 320 | 0.0 | 0.0 | 0.07 | 0.34 | 0.34 | 92 | 1014.4 |
| 20260505115057 | 35 | 347 | 0.9 | 0.9 | 0.00 | 0.33 | 0.33 | 92 | 1014.3 |
| 20260505114554 | 35 | 2 | 0.9 | 0.9 | 0.05 | 0.33 | 0.33 | 92 | 1014.4 |
| 20260505114050 | 34 | 31 | 0.0 | 0.0 | 0.12 | 0.33 | 0.33 | 92 | 1014.3 |
| 20260505113547 | 34 | 333 | 1.7 | 1.7 | 0.07 | 0.32 | 0.32 | 92 | 1014.3 |
| 20260505113044 | 34 | 2 | 0.9 | 0.9 | 0.05 | 0.31 | 0.31 | 92 | 1014.1 |
| 20260505112540 | 34 | 30 | 0.0 | 0.9 | 0.05 | 0.31 | 0.31 | 92 | 1014.0 |
| 20260505112039 | 34 | 344 | 1.7 | 1.7 | 0.07 | 0.30 | 0.30 | 92 | 1013.9 |
| 20260505111538 | 35 | 337 | 1.7 | 1.7 | 0.12 | 0.30 | 0.30 | 92 | 1014.1 |
| 20260505111034 | 35 | 7 | 1.7 | 1.7 | 0.05 | 0.29 | 0.29 | 92 | 1013.9 |
| 20260505110531 | 35 | 20 | 3.5 | 6.1 | 0.00 | 0.28 | 0.28 | 92 | 1013.8 |
| 20260505102003 | 37 | 25 | 2.6 | 4.3 | 0.07 | 0.25 | 0.25 | 92 | 1013.8 |
| 20260505101501 | 37 | 26 | 1.7 | 4.3 | 0.12 | 0.25 | 0.25 | 92 | 1013.4 |
| 20260505100957 | 38 | 350 | 7.0 | 11.3 | 0.12 | 0.24 | 0.24 | 92 | 1013.6 |
| 20260505100455 | 38 | 342 | 4.3 | 6.1 | 0.07 | 0.23 | 0.23 | 92 | 1013.1 |
| 20260505095951 | 40 | 352 | 2.6 | 4.3 | 0.05 | 0.22 | 0.22 | 92 | 1013.2 |
| 20260505095447 | 40 | 347 | 0.0 | 0.0 | 0.05 | 0.22 | 0.22 | 92 | 1012.9 |
| 20260505094944 | 41 | 286 | 0.9 | 1.7 | 0.00 | 0.21 | 0.21 | 92 | 1013.1 |
| 20260505094441 | 41 | 322 | 2.6 | 4.3 | 0.00 | 0.21 | 0.21 | 92 | 1012.9 |
| 20260505093937 | 41 | 353 | 2.6 | 2.6 | 0.00 | 0.21 | 0.21 | 92 | 1012.6 |
| 20260505093434 | 41 | 28 | 4.3 | 6.1 | 0.00 | 0.21 | 0.21 | 92 | 1012.7 |
| 20260505092931 | 41 | 34 | 0.9 | 0.9 | 0.00 | 0.21 | 0.21 | 92 | 1012.5 |
| 20260505092429 | 42 | 312 | 2.6 | 2.6 | 0.07 | 0.21 | 0.21 | 92 | 1012.6 |
| 20260505091926 | 42 | 19 | 2.6 | 2.6 | 0.07 | 0.21 | 0.21 | 92 | 1012.4 |
| 20260505091423 | 42 | 26 | 3.5 | 5.2 | 0.00 | 0.20 | 0.20 | 92 | 1012.4 |
| 20260505090921 | 42 | 23 | 3.5 | 5.2 | 0.00 | 0.20 | 0.20 | 92 | 1012.4 |
| 20260505090419 | 42 | 23 | 1.7 | 1.7 | 0.05 | 0.20 | 0.20 | 91 | 1012.4 |
| 20260505085916 | 42 | 323 | 4.3 | 7.0 | 0.05 | 0.20 | 0.20 | 91 | 1012.4 |
| 20260505085414 | 42 | 348 | 3.5 | 6.1 | 0.00 | 0.19 | 0.19 | 91 | 1012.5 |
| 20260505084912 | 42 | 336 | 4.3 | 7.0 | 0.07 | 0.19 | 0.19 | 91 | 1012.2 |
| 20260505084410 | 42 | 98 | 0.9 | 1.7 | 0.07 | 0.19 | 0.19 | 90 | 1012.0 |
| 20260505083908 | 42 | 26 | 3.5 | 5.2 | 0.05 | 0.18 | 0.18 | 90 | 1012.2 |
| 20260505083405 | 42 | 23 | 6.1 | 7.8 | 0.12 | 0.18 | 0.18 | 90 | 1012.2 |
| 20260505082901 | 42 | 357 | 4.3 | 7.0 | 0.12 | 0.17 | 0.17 | 89 | 1012.3 |
| 20260505082357 | 42 | 35 | 6.1 | 7.8 | 0.05 | 0.16 | 0.16 | 89 | 1012.2 |
| 20260505081854 | 42 | 323 | 8.7 | 11.3 | 0.00 | 0.15 | 0.15 | 89 | 1012.2 |
| 20260505081350 | 43 | 355 | 4.3 | 7.0 | 0.00 | 0.15 | 0.15 | 89 | 1011.9 |
| 20260505080847 | 43 | 279 | 2.6 | 4.3 | 0.07 | 0.15 | 0.15 | 88 | 1012.0 |
| 20260505080343 | 43 | 356 | 4.3 | 6.1 | 0.07 | 0.15 | 0.15 | 88 | 1011.9 |
| 20260505075839 | 43 | 353 | 7.0 | 7.8 | 0.00 | 0.14 | 0.14 | 88 | 1011.9 |
| 20260505075336 | 43 | 0 | 4.3 | 6.1 | 0.00 | 0.14 | 0.14 | 88 | 1012.0 |
| 20260505074833 | 43 | 24 | 6.1 | 7.8 | 0.00 | 0.14 | 0.14 | 87 | 1012.2 |
| 20260505074330 | 43 | 16 | 5.2 | 7.8 | 0.00 | 0.14 | 0.14 | 87 | 1012.2 |
| 20260505073828 | 43 | 313 | 3.5 | 5.2 | 0.00 | 0.14 | 0.14 | 87 | 1012.2 |
| 20260505073326 | 44 | 56 | 4.3 | 6.1 | 0.00 | 0.14 | 0.14 | 86 | 1012.0 |
| 20260505072822 | 44 | 22 | 4.3 | 5.2 | 0.00 | 0.14 | 0.14 | 85 | 1011.9 |
| 20260505072318 | 44 | 53 | 6.1 | 8.7 | 0.00 | 0.14 | 0.14 | 84 | 1012.0 |
| 20260505071814 | 44 | 26 | 2.6 | 4.3 | 0.00 | 0.14 | 0.14 | 84 | 1012.4 |
| 20260505071311 | 45 | 350 | 6.1 | 8.7 | 0.07 | 0.14 | 0.14 | 83 | 1012.2 |
| 20260505070809 | 45 | 39 | 3.5 | 5.2 | 0.07 | 0.14 | 0.14 | 82 | 1012.3 |
| 20260505070305 | 45 | 329 | 5.2 | 8.7 | 0.00 | 0.13 | 0.13 | 82 | 1012.3 |
| 20260505065800 | 46 | 354 | 3.5 | 5.2 | 0.00 | 0.13 | 0.13 | 81 | 1012.3 |
| 20260505065258 | 46 | 54 | 0.9 | 2.6 | 0.00 | 0.13 | 0.13 | 82 | 1011.9 |
| 20260505064755 | 47 | 51 | 2.6 | 7.0 | 0.00 | 0.13 | 0.13 | 84 | 1012.0 |
| 20260505064252 | 47 | 61 | 5.2 | 7.8 | 0.00 | 0.13 | 0.13 | 87 | 1012.2 |
| 20260505063749 | 47 | 12 | 2.6 | 4.3 | 0.00 | 0.13 | 0.13 | 89 | 1012.0 |
| 20260505063246 | 47 | 356 | 0.0 | 0.9 | 0.00 | 0.13 | 0.13 | 90 | 1011.6 |
| 20260505062742 | 46 | 350 | 0.0 | 0.0 | 0.00 | 0.13 | 0.13 | 90 | 1011.3 |
| 20260505062240 | 46 | 69 | 0.0 | 0.0 | 0.00 | 0.13 | 0.13 | 90 | 1011.5 |
| 20260505061737 | 46 | 98 | 0.0 | 0.0 | 0.00 | 0.13 | 0.13 | 90 | 1011.2 |
| 20260505061235 | 46 | 98 | 0.0 | 0.0 | 0.00 | 0.13 | 0.13 | 90 | 1011.3 |
| 20260505060732 | 46 | 97 | 0.0 | 0.0 | 0.00 | 0.13 | 0.13 | 90 | 1011.3 |
| 20260505060229 | 46 | 25 | 0.0 | 0.0 | 0.00 | 0.13 | 0.13 | 90 | 1011.0 |
| 20260505055724 | 46 | 25 | 0.0 | 0.0 | 0.00 | 0.13 | 0.13 | 89 | 1011.5 |
| 20260505055220 | 46 | 326 | 0.0 | 0.0 | 0.00 | 0.13 | 0.13 | 89 | 1011.5 |
| 20260505054718 | 46 | 332 | 0.0 | 0.0 | 0.00 | 0.13 | 0.13 | 89 | 1011.5 |
| 20260505054216 | 46 | 311 | 0.0 | 0.0 | 0.00 | 0.13 | 0.13 | 89 | 1011.3 |
| 20260505053714 | 46 | 49 | 0.0 | 0.0 | 0.00 | 0.13 | 0.13 | 89 | 1011.2 |
| 20260505053210 | 46 | 96 | 0.0 | 0.0 | 0.00 | 0.13 | 0.13 | 88 | 1010.9 |
| 20260505052707 | 46 | 112 | 0.0 | 0.0 | 0.00 | 0.13 | 0.13 | 88 | 1010.9 |
| 20260505052204 | 46 | 113 | 0.0 | 0.0 | 0.00 | 0.13 | 0.13 | 88 | 1011.0 |
| 20260505051701 | 46 | 109 | 0.0 | 0.0 | 0.00 | 0.13 | 0.13 | 87 | 1011.0 |
| 20260505051159 | 46 | 95 | 0.0 | 0.0 | 0.00 | 0.13 | 0.13 | 87 | 1010.9 |
| 20260505050657 | 46 | 338 | 0.0 | 0.0 | 0.00 | 0.13 | 0.13 | 86 | 1010.9 |
| 20260505050155 | 46 | 63 | 0.0 | 0.0 | 0.00 | 0.13 | 0.13 | 85 | 1011.0 |
| 20260505041624 | 47 | 148 | 0.0 | 0.0 | 0.00 | 0.13 | 0.13 | 86 | 1011.1 |
| 20260505041122 | 48 | 209 | 1.7 | 2.6 | 0.00 | 0.13 | 0.13 | 86 | 1011.0 |
| 20260505040618 | 48 | 147 | 1.7 | 1.7 | 0.00 | 0.13 | 0.13 | 86 | 1011.1 |
| 20260505040116 | 48 | 137 | 0.0 | 0.9 | 0.00 | 0.13 | 0.13 | 85 | 1011.0 |
| 20260505035612 | 48 | 213 | 1.7 | 1.7 | 0.00 | 0.13 | 0.13 | 86 | 1010.9 |
| 20260505035109 | 48 | 165 | 0.0 | 0.0 | 0.00 | 0.13 | 0.13 | 85 | 1011.0 |
| 20260505034605 | 48 | 164 | 0.9 | 0.9 | 0.00 | 0.13 | 0.13 | 85 | 1011.1 |
| 20260505034102 | 48 | 166 | 0.9 | 1.7 | 0.00 | 0.13 | 0.13 | 84 | 1010.9 |
| 20260505033559 | 49 | 213 | 0.0 | 0.0 | 0.00 | 0.13 | 0.13 | 84 | 1011.0 |
| 20260505033058 | 49 | 236 | 2.6 | 2.6 | 0.00 | 0.13 | 0.13 | 85 | 1011.1 |
| 20260505032555 | 49 | 243 | 0.0 | 0.9 | 0.00 | 0.13 | 0.13 | 84 | 1011.2 |
| 20260505032051 | 49 | 216 | 0.0 | 0.9 | 0.05 | 0.13 | 0.13 | 84 | 1011.0 |
| 20260505031548 | 50 | 182 | 1.7 | 2.6 | 0.05 | 0.13 | 0.13 | 83 | 1010.9 |
| 20260505031045 | 50 | 148 | 2.6 | 4.3 | 0.07 | 0.12 | 0.12 | 83 | 1010.8 |
| 20260505030542 | 50 | 175 | 0.9 | 0.9 | 0.07 | 0.12 | 0.12 | 82 | 1010.7 |
| 20260505030038 | 50 | 211 | 0.9 | 1.7 | 0.00 | 0.11 | 0.11 | 82 | 1010.5 |
| 20260505025533 | 50 | 232 | 0.9 | 1.7 | 0.05 | 0.11 | 0.11 | 82 | 1010.4 |
| 20260505025033 | 50 | 220 | 3.5 | 4.3 | 0.05 | 0.11 | 0.11 | 81 | 1010.4 |
| 20260505024529 | 50 | 202 | 0.0 | 0.9 | 0.07 | 0.10 | 0.10 | 80 | 1010.5 |
| 20260505024026 | 51 | 249 | 0.0 | 0.9 | 0.12 | 0.10 | 0.10 | 78 | 1010.3 |
| 20260505023523 | 51 | 263 | 0.9 | 0.9 | 0.05 | 0.09 | 0.09 | 76 | 1010.7 |
| 20260505023021 | 52 | 282 | 0.0 | 0.0 | 0.00 | 0.08 | 0.08 | 72 | 1010.3 |
| 20260505022518 | 52 | 288 | 0.9 | 1.7 | 0.00 | 0.08 | 0.08 | 70 | 1010.2 |
| 20260505022015 | 52 | 288 | 0.9 | 0.9 | 0.00 | 0.08 | 0.08 | 69 | 1009.8 |
| 20260505021512 | 52 | 316 | 0.0 | 0.0 | 0.00 | 0.08 | 0.08 | 69 | 1010.0 |
| 20260505021009 | 52 | 311 | 0.0 | 0.9 | 0.00 | 0.08 | 0.08 | 69 | 1010.1 |
| 20260505020503 | 52 | 320 | 0.0 | 0.9 | 0.00 | 0.08 | 0.08 | 70 | 1010.0 |
| 20260505020000 | 52 | 304 | 0.0 | 0.0 | 0.00 | 0.08 | 0.08 | 70 | 1010.1 |
| 20260505015457 | 52 | 334 | 1.7 | 1.7 | 0.00 | 0.08 | 0.08 | 70 | 1010.3 |
| 20260505014954 | 52 | 340 | 0.9 | 1.7 | 0.00 | 0.08 | 0.08 | 71 | 1010.1 |
| 20260505014451 | 52 | 322 | 0.0 | 0.0 | 0.00 | 0.08 | 0.08 | 71 | 1010.0 |
| 20260505013948 | 52 | 347 | 0.0 | 0.9 | 0.00 | 0.08 | 0.08 | 71 | 1010.2 |
| 20260505013445 | 52 | 344 | 0.0 | 0.9 | 0.00 | 0.08 | 0.08 | 70 | 1010.0 |
| 20260505012943 | 52 | 298 | 1.7 | 2.6 | 0.00 | 0.08 | 0.08 | 69 | 1009.7 |
| 20260505012441 | 53 | 3 | 2.6 | 2.6 | 0.00 | 0.08 | 0.08 | 67 | 1009.8 |
| 20260505011937 | 53 | 0 | 2.6 | 2.6 | 0.00 | 0.08 | 0.08 | 66 | 1009.8 |
| 20260505011433 | 53 | 8 | 2.6 | 4.3 | 0.00 | 0.08 | 0.08 | 66 | 1010.0 |
| 20260505010930 | 54 | 318 | 3.5 | 5.2 | 0.00 | 0.08 | 0.08 | 65 | 1009.8 |
| 20260505010426 | 54 | 328 | 2.6 | 4.3 | 0.00 | 0.08 | 0.08 | 64 | 1010.0 |
| 20260505005922 | 54 | 322 | 1.7 | 1.7 | 0.00 | 0.08 | 0.08 | 64 | 1009.7 |
| 20260505005419 | 55 | 6 | 2.6 | 5.2 | 0.00 | 0.08 | 0.08 | 63 | 1010.1 |
| 20260505004917 | 55 | 322 | 4.3 | 6.1 | 0.00 | 0.08 | 0.08 | 62 | 1009.8 |
| 20260505004413 | 56 | 340 | 2.6 | 2.6 | 0.00 | 0.08 | 0.08 | 61 | 1009.7 |
| 20260505003910 | 56 | 333 | 1.7 | 1.7 | 0.00 | 0.08 | 0.08 | 62 | 1009.8 |
| 20260505003407 | 57 | 356 | 0.9 | 0.9 | 0.00 | 0.08 | 0.08 | 65 | 1009.7 |
| 20260505002903 | 57 | 340 | 0.0 | 0.0 | 0.00 | 0.08 | 0.08 | 63 | 1009.5 |
| 20260505002400 | 57 | 15 | 0.9 | 0.9 | 0.00 | 0.08 | 0.08 | 64 | 1009.6 |
| 20260505001858 | 57 | 328 | 0.0 | 0.0 | 0.00 | 0.08 | 0.08 | 68 | 1009.4 |
| 20260505001355 | 57 | 273 | 0.9 | 0.9 | 0.00 | 0.08 | 0.08 | 67 | 1009.5 |
| 20260505000853 | 57 | 277 | 0.9 | 0.9 | 0.00 | 0.08 | 0.08 | 67 | 1009.4 |
| 20260505000351 | 56 | 348 | 0.0 | 0.9 | 0.00 | 0.08 | 0.08 | 70 | 1009.5 |
| 20260504235847 | 55 | 335 | 0.0 | 0.0 | 0.00 | 0.08 | 0.08 | 72 | 1009.4 |
| 20260504235344 | 56 | 344 | 0.0 | 0.0 | 0.00 | 0.08 | 0.08 | 75 | 1009.4 |
| 20260504234840 | 56 | 301 | 0.0 | 0.0 | 0.00 | 0.08 | 0.08 | 74 | 1009.4 |
| 20260504234338 | 56 | 248 | 0.0 | 0.0 | 0.00 | 0.08 | 0.08 | 73 | 1009.4 |
| 20260504233834 | 56 | 225 | 0.0 | 0.9 | 0.00 | 0.08 | 0.08 | 71 | 1009.0 |
| 20260504233330 | 55 | 197 | 0.9 | 1.7 | 0.00 | 0.08 | 0.08 | 71 | 1009.1 |
| 20260504232827 | 55 | 180 | 0.9 | 1.7 | 0.00 | 0.08 | 0.08 | 80 | 1008.9 |
| 20260504232324 | 54 | 161 | 0.0 | 0.9 | 0.00 | 0.08 | 0.08 | 81 | 1009.0 |
| 20260504231821 | 54 | 318 | 0.0 | 0.0 | 0.00 | 0.08 | 0.08 | 81 | 1009.0 |
| 20260504231317 | 53 | 28 | 0.9 | 0.9 | 0.07 | 0.08 | 0.08 | 78 | 1009.4 |
| 20260504230813 | 53 | 164 | 0.9 | 0.9 | 0.12 | 0.08 | 0.08 | 76 | 1009.3 |
| 20260504230312 | 53 | 85 | 0.0 | 0.0 | 0.17 | 0.07 | 0.07 | 73 | 1009.4 |
| 20260504225810 | 54 | 19 | 3.5 | 5.2 | 0.12 | 0.06 | 0.06 | 69 | 1009.4 |
| 20260504225306 | 56 | 331 | 2.6 | 4.3 | 0.07 | 0.04 | 0.04 | 64 | 1009.3 |
| 20260504224803 | 59 | 328 | 1.7 | 1.7 | 0.07 | 0.04 | 0.04 | 55 | 1009.0 |
| 20260504224301 | 61 | 293 | 0.9 | 0.9 | 0.00 | 0.03 | 0.03 | 48 | 1008.8 |
| 20260504223757 | 61 | 308 | 1.7 | 1.7 | 0.00 | 0.03 | 0.03 | 42 | 1008.7 |
| 20260504223252 | 62 | 358 | 4.3 | 5.2 | 0.00 | 0.03 | 0.03 | 41 | 1008.6 |
| 20260504222749 | 62 | 61 | 1.7 | 1.7 | 0.00 | 0.03 | 0.03 | 41 | 1008.3 |
| 20260504222246 | 62 | 30 | 0.9 | 1.7 | 0.00 | 0.03 | 0.03 | 41 | 1008.2 |
| 20260504221744 | 62 | 11 | 2.6 | 2.6 | 0.00 | 0.03 | 0.03 | 41 | 1008.2 |
| 20260504221241 | 62 | 27 | 4.3 | 6.1 | 0.00 | 0.03 | 0.03 | 39 | 1008.1 |
| 20260504220738 | 62 | 347 | 2.6 | 4.3 | 0.00 | 0.03 | 0.03 | 39 | 1007.6 |
| 20260504220235 | 62 | 330 | 1.7 | 4.3 | 0.00 | 0.03 | 0.03 | 43 | 1007.5 |
| 20260504215732 | 62 | 350 | 3.5 | 4.3 | 0.00 | 0.03 | 0.03 | 43 | 1007.2 |
| 20260504215228 | 62 | 14 | 0.9 | 0.9 | 0.00 | 0.03 | 0.03 | 45 | 1007.4 |
| 20260504214724 | 62 | 8 | 1.7 | 1.7 | 0.00 | 0.03 | 0.03 | 45 | 1007.5 |
| 20260504214221 | 62 | 16 | 2.6 | 4.3 | 0.00 | 0.03 | 0.03 | 44 | 1007.6 |
| 20260504213718 | 62 | 48 | 5.2 | 7.8 | 0.00 | 0.03 | 0.03 | 47 | 1008.0 |
| 20260504213214 | 63 | 57 | 1.7 | 4.3 | 0.00 | 0.03 | 0.03 | 47 | 1008.1 |
| 20260504212711 | 61 | 132 | 4.3 | 6.1 | 0.00 | 0.03 | 0.03 | 44 | 1008.8 |
| 20260504212208 | 60 | 28 | 0.9 | 0.9 | 0.00 | 0.03 | 0.03 | 50 | 1008.9 |
| 20260504211705 | 59 | 91 | 2.6 | 2.6 | 0.00 | 0.03 | 0.03 | 49 | 1008.9 |
| 20260504211201 | 58 | 18 | 0.9 | 0.9 | 0.00 | 0.03 | 0.03 | 49 | 1009.4 |
| 20260504210659 | 59 | 15 | 4.3 | 6.1 | 0.00 | 0.03 | 0.03 | 49 | 1009.4 |
| 20260504210155 | 58 | 35 | 4.3 | 7.0 | 0.00 | 0.03 | 0.03 | 52 | 1009.4 |
| 20260504205653 | 57 | 32 | 1.7 | 1.7 | 0.05 | 0.03 | 0.03 | 57 | 1009.1 |
| 20260504205150 | 58 | 43 | 3.5 | 6.1 | 0.19 | 0.03 | 0.03 | 54 | 1009.0 |
| 20260504204649 | 60 | 13 | 1.7 | 1.7 | 0.14 | 0.02 | 0.02 | 51 | 1008.9 |
| 20260504204147 | 62 | 13 | 3.5 | 6.1 | 0.00 | 0.00 | 0.00 | 39 | 1008.8 |
| 20260504203645 | 62 | 318 | 1.7 | 4.3 | 0.00 | 0.00 | 0.00 | 40 | 1008.6 |
| 20260504203143 | 62 | 341 | 5.2 | 8.7 | 0.00 | 0.00 | 0.00 | 43 | 1008.2 |
| 20260504202642 | 64 | 6 | 3.5 | 5.2 | 0.00 | 0.00 | 0.00 | 37 | 1007.6 |
| 20260504202140 | 64 | 341 | 11.3 | 15.6 | 0.00 | 0.00 | 0.00 | 33 | 1007.4 |
| 20260504201636 | 65 | 49 | 7.0 | 11.3 | 0.00 | 0.00 | 0.00 | 32 | 1007.2 |
| 20260504201134 | 68 | 7 | 10.4 | 15.6 | 0.00 | 0.00 | 0.00 | 29 | 1007.3 |
| 20260504200631 | 70 | 31 | 2.6 | 2.6 | 0.00 | 0.00 | 0.00 | 24 | 1007.2 |
| 20260504200128 | 71 | 74 | 2.6 | 5.2 | 0.00 | 0.00 | 0.00 | 24 | 1006.9 |
| 20260504195624 | 72 | 24 | 1.7 | 1.7 | 0.00 | 0.00 | 0.00 | 23 | 1007.0 |
| 20260504195120 | 72 | 12 | 0.9 | 0.9 | 0.00 | 0.00 | 0.00 | 24 | 1007.2 |
| 20260504194617 | 73 | 340 | 1.7 | 1.7 | 0.00 | 0.00 | 0.00 | 24 | 1006.8 |
| 20260504194113 | 73 | 7 | 2.6 | 4.3 | 0.00 | 0.00 | 0.00 | 25 | 1007.0 |
| 20260504193609 | 75 | 348 | 0.9 | 1.7 | 0.00 | 0.00 | 0.00 | 23 | 1007.2 |
| 20260504193108 | 75 | 15 | 3.5 | 4.3 | 0.00 | 0.00 | 0.00 | 23 | 1007.2 |
| 20260504192606 | 74 | 316 | 1.7 | 2.6 | 0.00 | 0.00 | 0.00 | 24 | 1007.3 |
| 20260504192104 | 74 | 313 | 2.6 | 4.3 | 0.00 | 0.00 | 0.00 | 24 | 1007.2 |
| 20260504191602 | 75 | 310 | 3.5 | 6.1 | 0.00 | 0.00 | 0.00 | 23 | 1007.2 |
| 20260504191057 | 74 | 236 | 3.5 | 5.2 | 0.00 | 0.00 | 0.00 | 24 | 1006.9 |
| 20260504190554 | 72 | 253 | 2.6 | 2.6 | 0.00 | 0.00 | 0.00 | 24 | 1007.3 |
| 20260504190050 | 72 | 186 | 4.3 | 6.1 | 0.00 | 0.00 | 0.00 | 24 | 1007.2 |
| 20260504185547 | 72 | 0 | 6.1 | 9.6 | 0.00 | 0.00 | 0.00 | 24 | 1007.4 |
| 20260504185043 | 73 | 333 | 6.1 | 7.8 | 0.00 | 0.00 | 0.00 | 23 | 1007.2 |
| 20260504184539 | 73 | 324 | 6.1 | 7.8 | 0.00 | 0.00 | 0.00 | 23 | 1007.4 |
| 20260504184034 | 74 | 258 | 3.5 | 5.2 | 0.00 | 0.00 | 0.00 | 23 | 1007.3 |
| 20260504183532 | 73 | 333 | 7.0 | 8.7 | 0.00 | 0.00 | 0.00 | 24 | 1007.6 |
| 20260504183030 | 73 | 334 | 6.1 | 8.7 | 0.00 | 0.00 | 0.00 | 23 | 1007.7 |
| 20260504182526 | 73 | 293 | 3.5 | 6.1 | 0.00 | 0.00 | 0.00 | 24 | 1007.5 |
| 20260504182024 | 72 | 325 | 2.6 | 2.6 | 0.00 | 0.00 | 0.00 | 24 | 1007.6 |
| 20260504181521 | 72 | 261 | 2.6 | 4.3 | 0.00 | 0.00 | 0.00 | 25 | 1007.6 |
| 20260504181019 | 72 | 306 | 2.6 | 2.6 | 0.00 | 0.00 | 0.00 | 25 | 1008.1 |
| 20260504180518 | 71 | 278 | 3.5 | 4.3 | 0.00 | 0.00 | 0.00 | 26 | 1008.2 |
| 20260504180016 | 71 | 277 | 3.5 | 4.3 | 0.00 | 0.00 | 0.00 | 26 | 1008.2 |
| 20260504175513 | 70 | 209 | 1.7 | 2.6 | 0.00 | 0.00 | 0.00 | 26 | 1008.2 |
| 20260504175010 | 69 | 282 | 5.2 | 7.8 | 0.00 | 0.00 | 0.00 | 26 | 1008.3 |
| 20260504174508 | 70 | 215 | 2.6 | 4.3 | 0.00 | 0.00 | 0.00 | 27 | 1008.3 |
| 20260504174005 | 70 | 217 | 0.9 | 0.9 | 0.00 | 0.00 | 0.00 | 27 | 1008.6 |
| 20260504173501 | 69 | 174 | 1.7 | 1.7 | 0.00 | 0.00 | 0.00 | 28 | 1008.6 |
| 20260504172959 | 68 | 254 | 1.7 | 1.7 | 0.00 | 0.00 | 0.00 | 29 | 1008.8 |
| 20260504172454 | 68 | 147 | 1.7 | 4.3 | 0.00 | 0.00 | 0.00 | 29 | 1008.3 |
| 20260504171951 | 67 | 219 | 0.9 | 0.9 | 0.00 | 0.00 | 0.00 | 29 | 1008.7 |
| 20260504171448 | 66 | 257 | 1.7 | 1.7 | 0.00 | 0.00 | 0.00 | 30 | 1008.8 |
| 20260504170945 | 66 | 224 | 0.9 | 1.7 | 0.00 | 0.00 | 0.00 | 31 | 1008.6 |
| 20260504170441 | 66 | 200 | 4.3 | 5.2 | 0.00 | 0.00 | 0.00 | 30 | 1008.8 |
| 20260504160401 | 65 | 236 | 0.9 | 1.7 | 0.00 | 0.00 | 0.00 | 30 | 1008.8 |